Regional Weather Roundup
Issued by NWS

Home | Current Version | Previous Version | Text Only | Print | Product List | Glossary On
Versions: 1 2 3 4 5 6 7 8 9 10 11 12 13 14 15 16 17 18 19 20 21 22 23 24 25 26 27
000
ASUS46 KPQR 290810
RWROR

OREGON REGIONAL WEATHER ROUNDUP
NATIONAL WEATHER SERVICE PORTLAND OR
100 AM PDT SAT APR 29 2017

NOTE: "FAIR" INDICATES FEW OR NO CLOUDS BELOW 12,000 FEET WITH
NO SIGNIFICANT WEATHER AND/OR OBSTRUCTIONS TO VISIBILITY.

ORZ001>013-290900-
NORTHWEST OREGON


CITY           SKY/WX    TMP DP  RH WIND       PRES   REMARKS
ASTORIA        CLEAR     40  37  89 SE3       30.34S
NEWPORT        CLEAR     37  37 100 E5        30.36S WCI  34
PORTLAND       CLEAR     48  40  73 NW8       30.33R
VANCOUVER WA   CLEAR     49  42  77 NW6       30.33R
SCAPPOOSE      CLEAR     46  40  79 N5        30.33R
HILLSBORO      CLEAR     43  32  65 CALM      30.33R
AURORA         CLEAR     46  39  76 N7        30.34R
MCMINNVILLE    CLEAR     44  40  85 W5        30.34R
SALEM          CLEAR     43  39  86 CALM      30.32R
CORVALLIS      CLEAR     45  39  81 CALM      30.32R
EUGENE         CLEAR     40  38  93 SE3       30.32R
$$

ORZ021-028-290900-
SOUTHWEST OREGON


CITY           SKY/WX    TMP DP  RH WIND       PRES   REMARKS
NORTH BEND     CLEAR     45  43  93 CALM      30.33R
BROOKINGS      CLEAR     53  35  50 CALM      30.21S
ROSEBURG       CLEAR     44  38  79 CALM      30.30R
SEXTON SUMMIT  CLEAR     41  30  65 SE3       30.22F
MEDFORD        CLEAR     47  38  71 CALM      30.26R
$$

ORZ014>016-041-290900-
COLUMBIA GORGE


CITY           SKY/WX    TMP DP  RH WIND       PRES   REMARKS
TROUTDALE      CLEAR     46  40  79 SW5       30.33R
HOOD RIVER     CLEAR     43  36  75 S3        30.29S
THE DALLES     CLEAR     50  38  63 CALM      30.27R
$$

ORZ029>031-041-044-049-050-061>064-502-503-505>511-290900-
EASTERN OREGON


CITY           SKY/WX    TMP DP  RH WIND       PRES   REMARKS
REDMOND        CLEAR     31  24  75 CALM      30.26R
BEND           CLEAR     32  27  80 CALM      30.26S
PRINEVILLE     CLEAR     32  28  86 S3        30.26R
KLAMATH FALLS  CLEAR     32  29  88 SE3       30.23R
LAKEVIEW       CLEAR     28  21  74 NW6       30.24R WCI  22
HERMISTON      CLEAR     44  38  79 S9        30.25R
PENDLETON      CLEAR     42  35  76 SE5       30.25R
JOHN DAY       CLEAR     36  31  83 CALM      30.25S
MEACHAM        CLEAR     28  23  81 CALM      30.24R
LA GRANDE      CLEAR     37  28  70 SE6       30.24R WCI  33
BAKER CITY     CLEAR     27  24  89 CALM      30.24R
BURNS          CLEAR     28  25  88 W7        30.24R WCI  21
ROME             N/A     38  28  67 N5        30.22R WCI  34
ONTARIO        CLEAR     41  32  70 NW7       30.23R
$$




USA.gov is the U.S. government's official web portal to all federal, state and local government web resources and services.